Regional Weather Roundup
Issued by NWS

Home | Current Version | Previous Version | Graphics & Text | Print | Product List | Glossary On
Versions: 1 2 3 4 5 6 7 8 9 10 11 12 13 14 15 16 17 18 19 20 21 22 23 24 25 26 27 28 29 30 31 32 33 34 35 36 37 38 39 40 41 42 43 44 45 46 47 48 49 50
000
ASUS43 KDMX 230206
RWRIA

WEATHER ROUNDUP FOR IOWA
NATIONAL WEATHER SERVICE DES MOINES IA
900 PM CDT SAT JUL 22 2017

NOTE: "FAIR" INDICATES FEW OR NO CLOUDS BELOW 12,000 FEET WITH NO
SIGNIFICANT WEATHER AND/OR OBSTRUCTIONS TO VISIBILITY.

* - THESE STATIONS ARE NOT NWS STATIONS...THUS NOT UNDER NWS
QUALITY CONTROL.  THEY ALSO DO NOT REPORT WEATHER SUCH
AS PRECIPITATION OR FOG.

IAZ001>003-012>014-020>022-031>034-043>046-230300-
   NORTHWEST IOWA

CITY           SKY/WX    TMP DP  RH WIND       PRES   REMARKS
CARROLL *      CLOUDY    77  77 100 W7        29.89S
CHEROKEE *     PTCLDY    77  69  77 CALM      29.90R
DENISON *      CLOUDY    77  75  94 CALM      29.92S
ORANGE CITY *  CLEAR     77  72  83 CALM      29.91S
SHELDON *      CLEAR     72  70  94 W5        29.89R
SIOUX CITY     CLEAR     76  75  97 W5        29.90R
SPENCER        CLEAR     74  70  87 NW5       29.90R
STORM LAKE *   PTCLDY    75  72  88 W5        29.92R
$$

IAZ055>058-069>071-079>083-090>094-230300-
   SOUTHWEST IOWA

CITY           SKY/WX    TMP DP  RH WIND       PRES   REMARKS
ATLANTIC *     CLOUDY    79  75  89 N9        29.88F HX  82
AUDUBON *      CLOUDY    79  73  83 CALM      29.91S HX  82
CLARINDA *     CLOUDY    81  79  94 CALM      29.90R HX  89
COUNCIL BLFS * CLOUDY    79  75  89 NW6       29.93R HX  82
CRESTON *      CLOUDY    79  75  89 E5        29.89F HX  82
HARLAN  *      CLOUDY    77  75  94 N6        29.93F
LAMONI         CLOUDY    83  74  74 N10       29.88R HX  89
RED OAK *      CLOUDY    81  77  89 N7        29.89R HX  88
SHENANDOAH *   MOCLDY    81  79  94 N8        29.88R HX  89
$$

IAZ047>049-059>061-072>074-084-230300-
   CENTRAL IOWA

CITY           SKY/WX    TMP DP  RH WIND       PRES   REMARKS
AMES           CLOUDY    78  77  96 W5        29.86S HX  81
ANKENY *       CLOUDY    81  73  78 CALM      29.86F HX  85
BOONE *        CLOUDY    77  75  94 W3        29.87S
CHARITON *     CLOUDY    81  73  78 N6        29.86S HX  85
DES MOINES     CLOUDY    83  73  72 N5        29.85S HX  89
GRINNELL*      CLOUDY    77  74  88 CALM      29.88R
KNOXVILLE *    CLOUDY    82  72  69 N6        29.86R HX  87
MARSHALLTOWN   CLOUDY    77  76  96 SW3       29.86R
NEWTON *       CLOUDY    79  73  83 N3        29.86S HX  82
PELLA *        MOCLDY    79  73  80 CALM      29.87R HX  83
$$

IAZ004>006-015-016-023>025-035-036-230300-
   NORTH CENTRAL IOWA

CITY           SKY/WX    TMP DP  RH WIND       PRES   REMARKS
ALGONA *       CLOUDY    79  73  83 N3        29.89R HX  82
ESTHERVILLE    CLEAR     74  71  91 NW5       29.88R
FORT DODGE *   CLOUDY    79  70  73 NW3       29.89R HX  81
MASON CITY     CLOUDY    78  73  84 NW7       29.88R HX  81
FOREST CITY *    N/A     79  72  78 NW7       29.88R HX  82
WEBSTER CITY * CLOUDY    79  75  89 SW7       29.86R HX  82
IOWA FALLS *     N/A     78  75  89 CALM      29.88R HX  81
$$

IAZ007>011-017>019-026>030-037>042-050>054-066-230300-
   NORTHEAST IOWA

CITY           SKY/WX    TMP DP  RH WIND       PRES   REMARKS
CEDAR RAPIDS   PTCLDY    75  75 100 W5        29.84R
CHARLES CITY * CLOUDY    77  77 100 W5        29.86R
DECORAH *      CLOUDY    77  73  88 CALM      29.83R
DUBUQUE        PTCLDY    77  74  90 CALM      29.84S
MONTICELLO *   CLOUDY    77  77 100 CALM      29.83R
OELWEIN *        N/A    N/A N/A N/A MISG        N/A
WATERLOO       CLOUDY    77  73  87 SW3       29.84R
$$

IAZ064-065-067-068-078-230300-
   EAST CENTRAL IOWA

CITY           SKY/WX    TMP DP  RH WIND       PRES   REMARKS
DAVENPORT      CLOUDY    78  75  90 CALM      29.84S HX  81
IOWA CITY      CLEAR     80  73  79 W5        29.85R HX  84
MT. PLEASANT * PTCLDY    80  75  86 N6        29.83R HX  84
MUSCATINE *    CLOUDY    81  75  83 N3        29.83R HX  86
QUAD CITIES    CLOUDY    82  73  74 CALM      29.81F HX  87
$$

IAZ062-063-075>077-085>089-095>099-230300-
   SOUTHEAST IOWA

CITY           SKY/WX    TMP DP  RH WIND       PRES   REMARKS
BURLINGTON     CLOUDY    83  78  85 N10       29.81R HX  93
FAIRFIELD *    PTCLDY    79  73  83 N5        29.84S HX  82
FORT MADISON * CLOUDY    82  79  89 N3        29.83R HX  93
KEOKUK *       CLOUDY    82  81  94 N6        29.81R HX  95
OSKALOOSA *      N/A     78  73  84 N5        29.85S
CENTERVILLE *    N/A     81  73  78 CALM      29.87S HX  85
OTTUMWA        CLOUDY    81  74  79 N5        29.85S HX  86
WASHINGTON *   CLEAR     79  75  89 N6        29.85S HX  82
$$

ABBREVIATIONS USED IN REMARKS
   TC - TEMPERATURES IN CELSIUS
  WCI - WIND CHILL INDEX
   HX - HEAT INDEX
  VSB - VISIBILITY
$$





USA.gov is the U.S. government's official web portal to all federal, state and local government web resources and services.